LARETS

Last updated on Wed Aug 26 2026 00:04:27 GMT+0000 (Coordinated Universal Time)

1 27944U 03042F 26237.56144615 .00000027 00000+0 14943-4 0 9990 2 27944 98.4236 41.2536 0012333 174.2254 185.9092 14.63878690223517
UTC large
Height (km)
Speed (km/s)
/
Latitude / Longitude
Inclination (degrees)
Orbital Period (minutes)
Azimuth
Elevation
Range (km)
Doppler Factor

Next 0 passes for location: London (51.5072 / 0.1276)

No passes found over London.
LARETS